When you browse on this site, cookies collect data to enhance your experience and personalize the content and advertising you see.
Visit our Privacy Policy to learn more. By continuing to use the site, you agree to this use of cookies and data.
  • In France
  • List of Countries
  • For 7 days
  • Water Temperature
  • Satellite Maps
  • Weather Map
  • Weather Widgets
  • user-avatar
    Login

    Hourly Weather Gavry

    Today, 18 February, Monday

    Time Temperature Precipitation Wind Pressure Humidity
    00:00 -4°C° 0 mm 3 mps 757 mmHg 89%
    01:00 -3°C° 0 mm 2 mps 757 mmHg 90%
    02:00 -5°C° 0 mm 2 mps 757 mmHg 93%
    03:00 -5°C° 0 mm 2 mps 758 mmHg 93%
    04:00 -6°C° 0 mm 2 mps 758 mmHg 93%
    05:00 -4°C° 0 mm 1 mps 758 mmHg 93%
    06:00 -4°C° 0 mm 1 mps 759 mmHg 92%
    07:00 -4°C° 0 mm 1 mps 759 mmHg 92%
    08:00 -4°C° 0 mm 1 mps 759 mmHg 91%
    09:00 -3°C° 0 mm 1 mps 760 mmHg 85%
    10:00 -2°C° 0 mm 0 mps 760 mmHg 79%
    11:00 -1°C° 0 mm 0 mps 760 mmHg 74%
    12:00 +1°C° 0 mm 1 mps 760 mmHg 71%
    13:00 +1°C° 0 mm 1 mps 759 mmHg 69%
    14:00 +2°C° 0 mm 1 mps 759 mmHg 67%
    15:00 -1°C° 0 mm 2 mps 759 mmHg 70%
    16:00 -1°C° 0 mm 2 mps 759 mmHg 73%
    17:00 -2°C° 0 mm 2 mps 758 mmHg 76%
    18:00 -2°C° 0 mm 2 mps 758 mmHg 77%
    19:00 -2°C° 0 mm 3 mps 758 mmHg 78%
    20:00 -4°C° 0 mm 3 mps 757 mmHg 80%
    21:00 -4°C° 0 mm 3 mps 757 mmHg 80%
    22:00 -3°C° 0 mm 4 mps 757 mmHg 81%
    23:00 -3°C° 0 mm 4 mps 756 mmHg 82%

    Tomorrow, 19 February, Tuesday

    Time Temperature Precipitation Wind Pressure Humidity
    00:00 -3°C° 0 mm 4 mps 756 mmHg 84%
    01:00 -3°C° 0 mm 4 mps 755 mmHg 86%
    02:00 -2°C° 0 mm 4 mps 755 mmHg 88%
    03:00 -2°C° 0 mm 4 mps 754 mmHg 88%
    04:00 -2°C° 0 mm 5 mps 754 mmHg 89%
    05:00 -2°C° 0 mm 5 mps 753 mmHg 89%
    06:00 -2°C° 0 mm 5 mps 753 mmHg 89%
    07:00 -2°C° 0 mm 5 mps 752 mmHg 90%
    08:00 -1°C° 0 mm 5 mps 752 mmHg 90%
    09:00 -1°C° 0 mm 5 mps 751 mmHg 89%
    10:00 0°C° 0 mm 5 mps 751 mmHg 88%
    11:00 +1°C° 0 mm 5 mps 750 mmHg 88%
    12:00 +1°C° 0 mm 5 mps 749 mmHg 88%
    13:00 +1°C° 0 mm 5 mps 749 mmHg 87%
    14:00 +1°C° 0 mm 5 mps 748 mmHg 87%
    15:00 +1°C° 0 mm 5 mps 748 mmHg 88%
    16:00 +1°C° 0 mm 4 mps 747 mmHg 88%
    17:00 0°C° 0 mm 4 mps 746 mmHg 89%
    18:00 +1°C° 0 mm 4 mps 745 mmHg 89%
    19:00 +1°C° 0 mm 5 mps 745 mmHg 89%
    20:00 +1°C° 0 mm 5 mps 744 mmHg 89%
    21:00 +1°C° 0 mm 5 mps 743 mmHg 89%
    22:00 +1°C° 0 mm 5 mps 743 mmHg 88%
    23:00 +1°C° 0 mm 5 mps 742 mmHg 88%

    Day after tomorrow, 20 February, Wednesday

    Time Temperature Precipitation Wind Pressure Humidity
    00:00 +1°C° 0.2 mm 5 mps 742 mmHg 88%
    01:00 +1°C° 0.2 mm 5 mps 742 mmHg 89%
    02:00 +1°C° 0.2 mm 5 mps 742 mmHg 90%
    03:00 +1°C° 0 mm 5 mps 742 mmHg 90%
    04:00 +1°C° 0 mm 5 mps 742 mmHg 90%
    05:00 +1°C° 0 mm 5 mps 742 mmHg 90%
    06:00 +1°C° 0.1 mm 5 mps 742 mmHg 89%
    07:00 0°C° 0.1 mm 5 mps 742 mmHg 88%
    08:00 0°C° 0.1 mm 5 mps 742 mmHg 87%
    09:00 0°C° 0 mm 5 mps 742 mmHg 85%
    10:00 +1°C° 0 mm 5 mps 742 mmHg 83%
    11:00 +1°C° 0 mm 6 mps 742 mmHg 80%
    12:00 +1°C° 0 mm 6 mps 742 mmHg 80%
    13:00 +1°C° 0 mm 6 mps 742 mmHg 80%
    14:00 +1°C° 0 mm 6 mps 742 mmHg 79%
    15:00 +1°C° 0 mm 6 mps 742 mmHg 80%
    16:00 +1°C° 0 mm 6 mps 742 mmHg 81%
    17:00 +1°C° 0 mm 6 mps 742 mmHg 82%
    18:00 -2°C° 0.1 mm 6 mps 743 mmHg 77%
    19:00 -3°C° 0.1 mm 7 mps 743 mmHg 73%
    20:00 -4°C° 0.1 mm 7 mps 744 mmHg 69%
    21:00 -4°C° 0 mm 7 mps 744 mmHg 70%
    22:00 -4°C° 0 mm 6 mps 745 mmHg 71%
    23:00 -5°C° 0 mm 6 mps 746 mmHg 72%

    21 February, Thursday

    Time Temperature Precipitation Wind Pressure Humidity
    00:00 -5°C° 0 mm 6 mps 746 mmHg 71%
    01:00 -5°C° 0 mm 6 mps 747 mmHg 69%
    02:00 -6°C° 0 mm 6 mps 748 mmHg 68%
    03:00 -6°C° 0.1 mm 6 mps 748 mmHg 67%
    04:00 -8°C° 0.1 mm 6 mps 748 mmHg 66%
    05:00 -8°C° 0.1 mm 6 mps 749 mmHg 65%
    06:00 -8°C° 0 mm 6 mps 749 mmHg 63%
    07:00 -8°C° 0 mm 6 mps 750 mmHg 62%
    08:00 -9°C° 0 mm 6 mps 751 mmHg 61%
    09:00 -8°C° 0 mm 6 mps 751 mmHg 59%
    10:00 -8°C° 0 mm 6 mps 752 mmHg 58%
    11:00 -8°C° 0 mm 6 mps 753 mmHg 57%
    12:00 -8°C° 0 mm 6 mps 753 mmHg 56%
    13:00 -8°C° 0 mm 6 mps 754 mmHg 56%
    14:00 -6°C° 0 mm 6 mps 754 mmHg 55%
    15:00 -8°C° 0 mm 6 mps 755 mmHg 57%
    16:00 -7°C° 0 mm 5 mps 756 mmHg 59%
    17:00 -8°C° 0 mm 5 mps 756 mmHg 61%
    18:00 -8°C° 0 mm 5 mps 757 mmHg 62%
    19:00 -8°C° 0 mm 5 mps 758 mmHg 64%
    20:00 -10°C° 0 mm 5 mps 759 mmHg 65%
    21:00 -10°C° 0 mm 5 mps 760 mmHg 66%
    22:00 -10°C° 0 mm 5 mps 761 mmHg 66%
    23:00 -10°C° 0 mm 4 mps 761 mmHg 66%

    22 February, Friday

    Time Temperature Precipitation Wind Pressure Humidity
    00:00 -10°C° 0 mm 4 mps 762 mmHg 67%
    01:00 -10°C° 0 mm 4 mps 763 mmHg 68%
    02:00 -9°C° 0 mm 3 mps 764 mmHg 69%
    03:00 -9°C° 0 mm 3 mps 764 mmHg 69%
    04:00 -9°C° 0 mm 3 mps 765 mmHg 69%
    05:00 -10°C° 0 mm 3 mps 765 mmHg 69%
    06:00 -10°C° 0 mm 3 mps 766 mmHg 70%
    07:00 -10°C° 0 mm 3 mps 767 mmHg 71%
    08:00 -9°C° 0 mm 3 mps 767 mmHg 72%
    09:00 -9°C° 0 mm 3 mps 768 mmHg 68%
    10:00 -8°C° 0 mm 3 mps 769 mmHg 65%
    11:00 -7°C° 0 mm 3 mps 769 mmHg 61%
    12:00 -6°C° 0 mm 3 mps 770 mmHg 57%
    13:00 -5°C° 0 mm 2 mps 770 mmHg 53%
    14:00 -4°C° 0 mm 2 mps 770 mmHg 50%
    15:00 -4°C° 0 mm 2 mps 770 mmHg 52%
    16:00 -4°C° 0 mm 2 mps 770 mmHg 55%
    17:00 -3°C° 0 mm 1 mps 770 mmHg 57%
    18:00 -5°C° 0 mm 2 mps 771 mmHg 59%
    19:00 -5°C° 0 mm 2 mps 771 mmHg 61%
    20:00 -6°C° 0 mm 2 mps 771 mmHg 63%
    21:00 -6°C° 0 mm 2 mps 770 mmHg 61%
    22:00 -7°C° 0 mm 3 mps 770 mmHg 59%
    23:00 -6°C° 0 mm 3 mps 770 mmHg 57%

    23 February, Saturday

    Time Temperature Precipitation Wind Pressure Humidity
    00:00 -6°C° 0 mm 3 mps 769 mmHg 54%
    01:00 -7°C° 0 mm 4 mps 768 mmHg 52%
    02:00 -5°C° 0 mm 4 mps 768 mmHg 49%
    03:00 -5°C° 0.1 mm 4 mps 767 mmHg 57%
    04:00 -6°C° 0.1 mm 5 mps 766 mmHg 64%
    05:00 -6°C° 0.1 mm 5 mps 765 mmHg 72%
    06:00 -7°C° 1 mm 5 mps 764 mmHg 79%
    07:00 -7°C° 1 mm 5 mps 763 mmHg 87%
    08:00 -7°C° 1 mm 5 mps 762 mmHg 94%
    09:00 -6°C° 0.6 mm 5 mps 761 mmHg 92%
    10:00 -5°C° 0.6 mm 5 mps 760 mmHg 89%
    11:00 -2°C° 0.6 mm 5 mps 759 mmHg 87%
    12:00 -1°C° 0 mm 5 mps 759 mmHg 88%
    13:00 0°C° 0 mm 4 mps 758 mmHg 90%
    14:00 +1°C° 0 mm 4 mps 757 mmHg 92%
    15:00 +2°C° 0 mm 3 mps 757 mmHg 93%
    16:00 +2°C° 0 mm 3 mps 757 mmHg 94%
    17:00 +2°C° 0 mm 3 mps 757 mmHg 95%
    18:00 +1°C° 0 mm 3 mps 757 mmHg 95%
    19:00 +1°C° 0 mm 3 mps 757 mmHg 95%
    20:00 +1°C° 0 mm 3 mps 758 mmHg 95%
    21:00 +1°C° 0 mm 3 mps 758 mmHg 95%
    22:00 0°C° 0 mm 3 mps 758 mmHg 95%
    23:00 0°C° 0 mm 3 mps 758 mmHg 96%
    Show more